| time (UTC) | temp C | wind direction | speed KPH | gust KPH | rain 1hr cm | rain 24hr cm | rain mn cm | humidity % | barometer mb |
| 20260510171643 | 16 | 299 | 24.1 | 24.1 | 0.00 | 0.00 | 0.00 | 69 | 1010.4 |
| 20260510171142 | 17 | 285 | 12.9 | 20.9 | 0.00 | 0.00 | 0.00 | 70 | 1010.5 |
| 20260510170643 | 16 | 43 | 1.6 | 20.9 | 0.00 | 0.00 | 0.00 | 70 | 1010.5 |
| 20260510170029 | 16 | 243 | 8.0 | 25.7 | 0.00 | 0.00 | 0.00 | 72 | 1010.6 |
| 20260510165527 | 16 | 332 | 17.7 | 25.7 | 0.00 | 0.00 | 0.00 | 71 | 1010.6 |
| 20260510165028 | 16 | 313 | 14.5 | 25.7 | 0.00 | 0.00 | 0.00 | 70 | 1010.5 |
| 20260510164528 | 16 | 292 | 16.1 | 25.7 | 0.00 | 0.00 | 0.00 | 71 | 1010.5 |
| 20260510164027 | 16 | 338 | 19.3 | 22.5 | 0.00 | 0.00 | 0.00 | 70 | 1010.5 |
| 20260510163528 | 16 | 289 | 17.7 | 27.4 | 0.00 | 0.00 | 0.00 | 70 | 1010.7 |
| 20260510163029 | 16 | 302 | 14.5 | 27.4 | 0.00 | 0.00 | 0.00 | 69 | 1010.7 |
| 20260510162528 | 16 | 309 | 20.9 | 27.4 | 0.00 | 0.00 | 0.00 | 71 | 1010.7 |
| 20260510162027 | 15 | 277 | 14.5 | 24.1 | 0.00 | 0.00 | 0.00 | 71 | 1010.6 |
| 20260510161643 | 15 | 320 | 9.7 | 24.1 | 0.00 | 0.00 | 0.00 | 71 | 1010.6 |
| 20260510161142 | 15 | 301 | 11.3 | 22.5 | 0.00 | 0.00 | 0.00 | 70 | 1010.7 |
| 20260510160528 | 16 | 297 | 11.3 | 22.5 | 0.00 | 0.00 | 0.00 | 70 | 1010.7 |
| 20260510160145 | 16 | 285 | 20.9 | 22.5 | 0.00 | 0.00 | 0.00 | 69 | 1010.7 |
| 20260510155528 | 16 | 239 | 8.0 | 19.3 | 0.00 | 0.00 | 0.00 | 69 | 1010.6 |
| 20260510155257 | 16 | 229 | 9.7 | 24.1 | 0.00 | 0.00 | 0.00 | 71 | 1010.6 |
| 20260510154529 | 16 | 219 | 9.7 | 17.7 | 0.00 | 0.00 | 0.00 | 71 | 1010.4 |
| 20260510154143 | 16 | 228 | 8.0 | 17.7 | 0.00 | 0.00 | 0.00 | 71 | 1010.5 |
| 20260510153528 | 16 | 228 | 11.3 | 20.9 | 0.00 | 0.00 | 0.00 | 69 | 1010.4 |
| 20260510153029 | 16 | 210 | 4.8 | 20.9 | 0.00 | 0.00 | 0.00 | 68 | 1010.4 |
| 20260510152528 | 16 | 213 | 8.0 | 17.7 | 0.00 | 0.00 | 0.00 | 70 | 1010.4 |
| 20260510152027 | 16 | 215 | 14.5 | 17.7 | 0.00 | 0.00 | 0.00 | 70 | 1010.4 |
| 20260510151528 | 16 | 207 | 11.3 | 14.5 | 0.00 | 0.00 | 0.00 | 70 | 1010.3 |
| 20260510151027 | 16 | 160 | 3.2 | 14.5 | 0.00 | 0.00 | 0.00 | 71 | 1010.3 |
| 20260510150642 | 16 | 211 | 3.2 | 22.5 | 0.00 | 0.00 | 0.00 | 71 | 1010.2 |
| 20260510150028 | 16 | 226 | 8.0 | 22.5 | 0.00 | 0.00 | 0.00 | 70 | 1010.3 |
| 20260510145528 | 16 | 249 | 8.0 | 17.7 | 0.00 | 0.00 | 0.00 | 69 | 1010.3 |
| 20260510145026 | 16 | 258 | 11.3 | 32.2 | 0.00 | 0.00 | 0.00 | 70 | 1010.2 |
| 20260510144529 | 16 | 256 | 14.5 | 32.2 | 0.00 | 0.00 | 0.00 | 69 | 1010.1 |
| 20260510144027 | 16 | 278 | 11.3 | 19.3 | 0.00 | 0.00 | 0.00 | 69 | 1010.1 |
| 20260510143528 | 16 | 191 | 1.6 | 12.9 | 0.00 | 0.00 | 0.00 | 75 | 1010.0 |
| 20260510143300 | 16 | 224 | 4.8 | 14.5 | 0.00 | 0.00 | 0.00 | 75 | 1010.0 |
| 20260510142527 | 16 | 196 | 14.5 | 17.7 | 0.00 | 0.00 | 0.00 | 77 | 1009.9 |
| 20260510142142 | 16 | 189 | 3.2 | 17.7 | 0.00 | 0.00 | 0.00 | 77 | 1009.9 |
| 20260510141529 | 16 | 193 | 6.4 | 14.5 | 0.00 | 0.00 | 0.00 | 76 | 1009.9 |
| 20260510141027 | 15 | 166 | 4.8 | 17.7 | 0.00 | 0.00 | 0.00 | 77 | 1009.9 |
| 20260510140644 | 15 | 328 | 3.2 | 17.7 | 0.00 | 0.00 | 0.00 | 78 | 1010.0 |
| 20260510140029 | 15 | 271 | 1.6 | 17.7 | 0.00 | 0.00 | 0.00 | 78 | 1010.1 |
| 20260510135527 | 15 | 354 | 3.2 | 17.7 | 0.00 | 0.00 | 0.00 | 79 | 1010.0 |
| 20260510135027 | 15 | 147 | 9.7 | 17.7 | 0.00 | 0.00 | 0.00 | 79 | 1010.0 |
| 20260510134644 | 15 | 133 | 8.0 | 16.1 | 0.00 | 0.00 | 0.00 | 79 | 1010.0 |
| 20260510134027 | 14 | 102 | 14.5 | 14.5 | 0.00 | 0.00 | 0.00 | 80 | 1009.9 |
| 20260510133643 | 14 | 130 | 6.4 | 12.9 | 0.00 | 0.00 | 0.00 | 80 | 1009.9 |
| 20260510133028 | 14 | 143 | 4.8 | 9.7 | 0.00 | 0.00 | 0.00 | 81 | 1009.9 |
| 20260510132528 | 13 | 138 | 6.4 | 9.7 | 0.00 | 0.00 | 0.00 | 82 | 1010.0 |
| 20260510132027 | 13 | 100 | 1.6 | 14.5 | 0.00 | 0.00 | 0.00 | 83 | 1010.1 |
| 20260510131643 | 13 | 149 | 6.4 | 14.5 | 0.00 | 0.00 | 0.00 | 83 | 1010.1 |
| 20260510131028 | 13 | 179 | 3.2 | 11.3 | 0.00 | 0.00 | 0.00 | 84 | 1010.1 |
| 20260510130527 | 13 | 158 | 3.2 | 9.7 | 0.00 | 0.00 | 0.00 | 83 | 1010.1 |
| 20260510130144 | 13 | 138 | 4.8 | 11.3 | 0.00 | 0.00 | 0.00 | 84 | 1010.1 |
| 20260510125643 | 13 | 162 | 6.4 | 11.3 | 0.00 | 0.00 | 0.00 | 83 | 1010.1 |
| 20260510125027 | 13 | 93 | 4.8 | 14.5 | 0.00 | 0.00 | 0.00 | 85 | 1010.1 |
| 20260510124644 | 13 | 209 | 1.6 | 11.3 | 0.00 | 0.00 | 0.00 | 85 | 1010.0 |
| 20260510124027 | 12 | 300 | 1.6 | 17.7 | 0.00 | 0.00 | 0.00 | 85 | 1009.9 |
| 20260510123643 | 12 | 158 | 8.0 | 17.7 | 0.00 | 0.00 | 0.00 | 86 | 1010.0 |
| 20260510123259 | 12 | 99 | 1.6 | 16.1 | 0.00 | 0.00 | 0.00 | 87 | 1010.0 |
| 20260510122528 | 12 | 169 | 1.6 | 16.1 | 0.00 | 0.00 | 0.00 | 86 | 1010.0 |
| 20260510122027 | 12 | 146 | 4.8 | 16.1 | 0.00 | 0.00 | 0.00 | 86 | 1010.0 |
| 20260510121644 | 12 | 175 | 6.4 | 14.5 | 0.00 | 0.00 | 0.00 | 87 | 1010.1 |
| 20260510121027 | 12 | 142 | 3.2 | 16.1 | 0.00 | 0.00 | 0.00 | 88 | 1010.0 |
| 20260510120643 | 11 | 172 | 4.8 | 14.5 | 0.00 | 0.00 | 0.00 | 89 | 1010.1 |
| 20260510120029 | 11 | 197 | 4.8 | 14.5 | 0.00 | 0.00 | 0.00 | 90 | 1010.0 |
| 20260510115527 | 11 | 229 | 0.0 | 11.3 | 0.00 | 0.00 | 0.00 | 90 | 1010.0 |
| 20260510115143 | 11 | 251 | 3.2 | 9.7 | 0.00 | 0.00 | 0.00 | 90 | 1010.1 |
| 20260510114643 | 11 | 177 | 8.0 | 12.9 | 0.00 | 0.00 | 0.00 | 90 | 1010.0 |
| 20260510114142 | 11 | 161 | 1.6 | 16.1 | 0.00 | 0.00 | 0.00 | 90 | 1010.1 |
| 20260510113643 | 11 | 172 | 11.3 | 16.1 | 0.00 | 0.00 | 0.00 | 90 | 1010.2 |
| 20260510113142 | 11 | 167 | 8.0 | 12.9 | 0.00 | 0.00 | 0.00 | 90 | 1010.1 |
| 20260510112527 | 11 | 208 | 0.0 | 8.0 | 0.00 | 0.00 | 0.00 | 91 | 1010.2 |
| 20260510112142 | 11 | 214 | 1.6 | 9.7 | 0.00 | 0.00 | 0.00 | 91 | 1010.1 |
| 20260510111529 | 10 | 171 | 1.6 | 11.3 | 0.00 | 0.00 | 0.00 | 91 | 1010.1 |
| 20260510111146 | 10 | 195 | 1.6 | 11.3 | 0.00 | 0.00 | 0.00 | 91 | 1010.1 |
| 20260510110758 | 10 | 200 | 8.0 | 9.7 | 0.00 | 0.00 | 0.00 | 91 | 1010.0 |
| 20260510110028 | 10 | 251 | 3.2 | 11.3 | 0.00 | 0.00 | 0.00 | 91 | 1009.9 |
| 20260510105529 | 10 | 164 | 8.0 | 9.7 | 0.00 | 0.00 | 0.00 | 92 | 1009.9 |
| 20260510105144 | 10 | 187 | 1.6 | 9.7 | 0.00 | 0.00 | 0.00 | 91 | 1009.8 |
| 20260510104529 | 10 | 179 | 3.2 | 8.0 | 0.00 | 0.00 | 0.00 | 92 | 1009.6 |
| 20260510104027 | 10 | 199 | 1.6 | 8.0 | 0.00 | 0.00 | 0.00 | 92 | 1009.6 |
| 20260510103528 | 10 | 215 | 1.6 | 6.4 | 0.00 | 0.00 | 0.00 | 92 | 1009.4 |
| 20260510103029 | 10 | 150 | 0.0 | 6.4 | 0.00 | 0.00 | 0.00 | 92 | 1009.4 |
| 20260510102527 | 10 | 183 | 3.2 | 4.8 | 0.00 | 0.00 | 0.00 | 92 | 1009.3 |
| 20260510102027 | 10 | 167 | 0.0 | 6.4 | 0.00 | 0.00 | 0.00 | 92 | 1009.3 |
| 20260510101531 | 10 | 208 | 1.6 | 8.0 | 0.00 | 0.00 | 0.00 | 92 | 1009.2 |
| 20260510101143 | 10 | 215 | 4.8 | 8.0 | 0.00 | 0.00 | 0.00 | 92 | 1009.2 |
| 20260510100528 | 10 | 193 | 3.2 | 4.8 | 0.00 | 0.00 | 0.00 | 92 | 1009.2 |
| 20260510100028 | 10 | 188 | 1.6 | 8.0 | 0.00 | 0.00 | 0.00 | 92 | 1009.0 |
| 20260510095527 | 10 | 188 | 3.2 | 9.7 | 0.00 | 0.00 | 0.00 | 92 | 1009.0 |
| 20260510095142 | 10 | 185 | 3.2 | 11.3 | 0.00 | 0.00 | 0.00 | 92 | 1009.0 |
| 20260510094530 | 10 | 177 | 3.2 | 9.7 | 0.00 | 0.00 | 0.00 | 92 | 1009.0 |
| 20260510094027 | 10 | 188 | 4.8 | 12.9 | 0.00 | 0.00 | 0.00 | 93 | 1008.9 |
| 20260510093528 | 10 | 268 | 1.6 | 8.0 | 0.00 | 0.00 | 0.00 | 93 | 1008.7 |
| 20260510093028 | 10 | 108 | 0.0 | 8.0 | 0.00 | 0.00 | 0.00 | 93 | 1008.8 |
| 20260510092528 | 10 | 164 | 6.4 | 8.0 | 0.00 | 0.00 | 0.00 | 93 | 1008.6 |
| 20260510092027 | 10 | 145 | 4.8 | 17.7 | 0.00 | 0.00 | 0.00 | 93 | 1008.5 |
| 20260510091530 | 10 | 141 | 3.2 | 17.7 | 0.00 | 0.00 | 0.00 | 93 | 1008.6 |
| 20260510091258 | 10 | 168 | 14.5 | 19.3 | 0.00 | 0.00 | 0.00 | 92 | 1008.6 |
| 20260510090802 | 10 | 185 | 9.7 | 16.1 | 0.00 | 0.00 | 0.00 | 92 | 1008.6 |
| 20260510090029 | 10 | 248 | 8.0 | 16.1 | 0.00 | 0.00 | 0.00 | 92 | 1008.5 |
| 20260510085643 | 10 | 195 | 9.7 | 14.5 | 0.00 | 0.00 | 0.00 | 92 | 1008.6 |
| 20260510085028 | 10 | 181 | 9.7 | 14.5 | 0.00 | 0.00 | 0.00 | 91 | 1008.4 |
| 20260510084643 | 10 | 154 | 4.8 | 14.5 | 0.00 | 0.00 | 0.00 | 91 | 1008.3 |
| 20260510084027 | 10 | 202 | 8.0 | 12.9 | 0.00 | 0.00 | 0.00 | 91 | 1008.4 |
| 20260510083643 | 10 | 193 | 8.0 | 14.5 | 0.00 | 0.00 | 0.00 | 91 | 1008.5 |
| 20260510083144 | 10 | 197 | 11.3 | 14.5 | 0.00 | 0.00 | 0.00 | 91 | 1008.5 |
| 20260510082642 | 10 | 216 | 11.3 | 14.5 | 0.00 | 0.00 | 0.00 | 91 | 1008.5 |
| 20260510082142 | 10 | 130 | 6.4 | 16.1 | 0.00 | 0.00 | 0.00 | 91 | 1008.2 |
| 20260510081530 | 10 | 172 | 11.3 | 11.3 | 0.00 | 0.00 | 0.00 | 91 | 1008.6 |
| 20260510081027 | 10 | 233 | 1.6 | 11.3 | 0.00 | 0.00 | 0.00 | 91 | 1009.0 |
| 20260510080528 | 10 | 147 | 4.8 | 8.0 | 0.00 | 0.00 | 0.00 | 91 | 1008.9 |
| 20260510080029 | 10 | 158 | 0.0 | 6.4 | 0.00 | 0.00 | 0.00 | 91 | 1008.9 |
| 20260510075528 | 10 | 196 | 1.6 | 8.0 | 0.00 | 0.00 | 0.00 | 91 | 1009.1 |
| 20260510075027 | 10 | 217 | 4.8 | 8.0 | 0.00 | 0.00 | 0.00 | 91 | 1009.2 |
| 20260510074529 | 10 | 210 | 4.8 | 6.4 | 0.00 | 0.00 | 0.00 | 91 | 1009.1 |
| 20260510074028 | 10 | 199 | 0.0 | 8.0 | 0.00 | 0.00 | 0.00 | 91 | 1009.2 |
| 20260510073528 | 10 | 202 | 4.8 | 8.0 | 0.00 | 0.00 | 0.00 | 91 | 1009.2 |
| 20260510073028 | 10 | 217 | 4.8 | 6.4 | 0.00 | 0.00 | 0.00 | 91 | 1009.4 |
| 20260510072528 | 10 | 239 | 0.0 | 8.0 | 0.00 | 0.00 | 0.00 | 91 | 1009.3 |
| 20260510072142 | 10 | 228 | 0.0 | 11.3 | 0.00 | 0.00 | 0.00 | 91 | 1009.2 |
| 20260510071800 | 10 | 228 | 6.4 | 11.3 | 0.00 | 0.00 | 0.00 | 91 | 1009.3 |
| 20260510071027 | 10 | 214 | 6.4 | 14.5 | 0.00 | 0.00 | 0.00 | 91 | 1009.2 |
| 20260510070528 | 10 | 147 | 4.8 | 9.7 | 0.00 | 0.00 | 0.00 | 91 | 1009.1 |
| 20260510070144 | 10 | 144 | 1.6 | 11.3 | 0.00 | 0.00 | 0.00 | 91 | 1009.1 |
| 20260510065644 | 10 | 188 | 1.6 | 14.5 | 0.00 | 0.00 | 0.00 | 91 | 1009.1 |
| 20260510065027 | 10 | 160 | 9.7 | 16.1 | 0.00 | 0.00 | 0.00 | 91 | 1009.0 |
| 20260510064529 | 10 | 139 | 12.9 | 14.5 | 0.00 | 0.00 | 0.00 | 91 | 1008.9 |
| 20260510064027 | 10 | 257 | 6.4 | 14.5 | 0.00 | 0.00 | 0.00 | 91 | 1008.9 |
| 20260510063528 | 10 | 187 | 1.6 | 17.7 | 0.00 | 0.00 | 0.00 | 91 | 1008.8 |
| 20260510063145 | 10 | 164 | 16.1 | 17.7 | 0.00 | 0.00 | 0.00 | 91 | 1008.8 |
| 20260510062527 | 10 | 187 | 4.8 | 19.3 | 0.00 | 0.00 | 0.00 | 91 | 1008.7 |
| 20260510062027 | 10 | 192 | 9.7 | 19.3 | 0.00 | 0.00 | 0.00 | 91 | 1008.8 |
| 20260510061529 | 10 | 243 | 3.2 | 14.5 | 0.00 | 0.00 | 0.00 | 91 | 1008.7 |
| 20260510061027 | 10 | 170 | 9.7 | 14.5 | 0.00 | 0.00 | 0.00 | 91 | 1008.8 |
| 20260510060643 | 10 | 197 | 3.2 | 16.1 | 0.00 | 0.00 | 0.00 | 91 | 1008.8 |
| 20260510060028 | 10 | 190 | 4.8 | 16.1 | 0.00 | 0.00 | 0.00 | 91 | 1008.9 |
| 20260510055528 | 10 | 197 | 8.0 | 17.7 | 0.00 | 0.00 | 0.00 | 91 | 1008.9 |
| 20260510055259 | 10 | 132 | 8.0 | 17.7 | 0.00 | 0.00 | 0.00 | 91 | 1009.0 |
| 20260510054643 | 10 | 187 | 6.4 | 9.7 | 0.00 | 0.00 | 0.00 | 91 | 1009.1 |
| 20260510054142 | 10 | 216 | 3.2 | 11.3 | 0.00 | 0.00 | 0.00 | 91 | 1009.1 |
| 20260510053528 | 10 | 215 | 4.8 | 8.0 | 0.00 | 0.00 | 0.00 | 91 | 1009.2 |
| 20260510053029 | 10 | 187 | 0.0 | 4.8 | 0.00 | 0.00 | 0.00 | 91 | 1009.2 |
| 20260510052757 | 10 | 187 | 0.0 | 4.8 | 0.00 | 0.00 | 0.00 | 91 | 1009.0 |
| 20260510052027 | 10 | 160 | 1.6 | 4.8 | 0.00 | 0.00 | 0.00 | 91 | 1009.1 |
| 20260510051530 | 10 | 189 | 3.2 | 4.8 | 0.00 | 0.00 | 0.00 | 91 | 1009.1 |
| 20260510051258 | 10 | 200 | 0.0 | 8.0 | 0.00 | 0.00 | 0.00 | 91 | 1008.9 |
| 20260510050528 | 10 | 131 | 3.2 | 11.3 | 0.00 | 0.00 | 0.00 | 91 | 1009.2 |
| 20260510050143 | 10 | 152 | 6.4 | 12.9 | 0.00 | 0.00 | 0.00 | 91 | 1009.3 |
| 20260510045528 | 10 | 213 | 1.6 | 11.3 | 0.00 | 0.00 | 0.00 | 91 | 1009.2 |
| 20260510045257 | 10 | 253 | 1.6 | 12.9 | 0.00 | 0.00 | 0.00 | 91 | 1009.1 |
| 20260510044528 | 10 | 216 | 8.0 | 12.9 | 0.00 | 0.00 | 0.00 | 90 | 1009.1 |
| 20260510044028 | 10 | 197 | 4.8 | 11.3 | 0.00 | 0.00 | 0.00 | 90 | 1009.1 |
| 20260510043642 | 10 | 198 | 3.2 | 11.3 | 0.00 | 0.00 | 0.00 | 90 | 1009.2 |
| 20260510043028 | 10 | 199 | 4.8 | 11.3 | 0.00 | 0.00 | 0.00 | 90 | 1009.2 |
| 20260510042528 | 10 | 176 | 1.6 | 12.9 | 0.00 | 0.00 | 0.00 | 90 | 1009.1 |
| 20260510042027 | 10 | 157 | 8.0 | 12.9 | 0.00 | 0.00 | 0.00 | 90 | 1009.2 |
| 20260510041529 | 10 | 192 | 3.2 | 11.3 | 0.00 | 0.00 | 0.00 | 90 | 1009.1 |
| 20260510041028 | 10 | 146 | 6.4 | 14.5 | 0.00 | 0.00 | 0.00 | 90 | 1009.1 |
| 20260510040527 | 10 | 214 | 4.8 | 14.5 | 0.00 | 0.00 | 0.00 | 90 | 1009.2 |
| 20260510040028 | 10 | 209 | 1.6 | 12.9 | 0.00 | 0.00 | 0.00 | 90 | 1009.3 |
| 20260510035528 | 10 | 189 | 3.2 | 11.3 | 0.00 | 1.52 | 1.52 | 89 | 1009.2 |
| 20260510035028 | 10 | 154 | 9.7 | 11.3 | 0.00 | 1.52 | 1.52 | 89 | 1009.0 |
| 20260510034644 | 10 | 145 | 1.6 | 12.9 | 0.00 | 1.52 | 1.52 | 89 | 1009.0 |
| 20260510034027 | 10 | 183 | 0.0 | 12.9 | 0.00 | 1.52 | 1.52 | 89 | 1009.1 |
| 20260510033643 | 10 | 260 | 1.6 | 11.3 | 0.00 | 1.52 | 1.52 | 89 | 1009.1 |
| 20260510033029 | 10 | 218 | 3.2 | 6.4 | 0.00 | 1.52 | 1.52 | 89 | 1009.1 |
| 20260510032527 | 10 | 140 | 0.0 | 6.4 | 0.00 | 1.52 | 1.52 | 89 | 1009.3 |
| 20260510032143 | 11 | 203 | 0.0 | 8.0 | 0.00 | 1.52 | 1.52 | 88 | 1009.3 |
| 20260510031529 | 11 | 195 | 6.4 | 8.0 | 0.00 | 1.52 | 1.52 | 88 | 1009.4 |
| 20260510031142 | 11 | 187 | 3.2 | 12.9 | 0.00 | 1.52 | 1.52 | 88 | 1009.3 |
| 20260510030528 | 11 | 193 | 9.7 | 12.9 | 0.00 | 1.52 | 1.52 | 88 | 1009.4 |
| 20260510030027 | 10 | 203 | 4.8 | 12.9 | 0.00 | 1.52 | 1.52 | 89 | 1009.3 |
| 20260510025528 | 10 | 202 | 6.4 | 12.9 | 0.00 | 1.52 | 1.52 | 89 | 1009.2 |
| 20260510025027 | 10 | 208 | 6.4 | 14.5 | 0.00 | 1.52 | 1.52 | 89 | 1009.2 |
| 20260510024529 | 10 | 185 | 11.3 | 14.5 | 0.00 | 1.52 | 1.52 | 90 | 1009.3 |
| 20260510024028 | 10 | 231 | 1.6 | 11.3 | 0.00 | 1.52 | 1.52 | 90 | 1009.3 |
| 20260510023528 | 10 | 220 | 1.6 | 6.4 | 0.00 | 1.52 | 1.52 | 90 | 1009.4 |
| 20260510023029 | 10 | 212 | 3.2 | 8.0 | 0.00 | 1.52 | 1.52 | 90 | 1009.4 |
| 20260510022528 | 10 | 230 | 4.8 | 6.4 | 0.00 | 1.52 | 1.52 | 90 | 1009.4 |
| 20260510022142 | 10 | 213 | 1.6 | 6.4 | 0.00 | 1.52 | 1.52 | 90 | 1009.4 |
| 20260510021644 | 10 | 213 | 3.2 | 4.8 | 0.00 | 1.52 | 1.52 | 90 | 1009.4 |
| 20260510021027 | 10 | 213 | 3.2 | 4.8 | 0.00 | 1.52 | 1.52 | 90 | 1009.3 |
| 20260510020527 | 10 | 168 | 0.0 | 0.0 | 0.00 | 1.52 | 1.52 | 90 | 1009.2 |
| 20260510020030 | 10 | 168 | 0.0 | 3.2 | 0.00 | 1.52 | 1.52 | 89 | 1009.3 |
| 20260510015643 | 10 | 149 | 0.0 | 8.0 | 0.00 | 1.52 | 1.52 | 89 | 1009.3 |
| 20260510015027 | 10 | 149 | 1.6 | 12.9 | 0.00 | 1.52 | 1.52 | 89 | 1009.4 |
| 20260510014528 | 10 | 199 | 6.4 | 9.7 | 0.00 | 1.52 | 1.52 | 89 | 1009.5 |
| 20260510014143 | 10 | 224 | 0.0 | 9.7 | 0.00 | 1.52 | 1.52 | 89 | 1009.5 |
| 20260510013642 | 10 | 224 | 0.0 | 12.9 | 0.00 | 1.52 | 1.52 | 89 | 1009.5 |
| 20260510013144 | 10 | 164 | 6.4 | 6.4 | 0.00 | 1.52 | 1.52 | 89 | 1009.6 |
| 20260510012527 | 10 | 215 | 3.2 | 8.0 | 0.00 | 1.52 | 1.52 | 89 | 1009.4 |
| 20260510012143 | 10 | 228 | 3.2 | 8.0 | 0.00 | 1.52 | 1.52 | 89 | 1009.5 |
| 20260510011529 | 10 | 232 | 1.6 | 9.7 | 0.00 | 1.52 | 1.52 | 89 | 1009.4 |
| 20260510011030 | 11 | 220 | 6.4 | 9.7 | 0.00 | 1.52 | 1.52 | 88 | 1009.4 |
| 20260510010527 | 11 | 213 | 8.0 | 11.3 | 0.00 | 1.52 | 1.52 | 88 | 1009.4 |
| 20260510010144 | 11 | 218 | 4.8 | 9.7 | 0.00 | 1.52 | 1.52 | 88 | 1009.4 |
| 20260510005527 | 11 | 187 | 1.6 | 14.5 | 0.00 | 1.52 | 1.52 | 88 | 1009.3 |
| 20260510005028 | 11 | 190 | 1.6 | 14.5 | 0.00 | 1.52 | 1.52 | 88 | 1009.2 |
| 20260510004528 | 11 | 158 | 3.2 | 12.9 | 0.00 | 1.52 | 1.52 | 87 | 1009.1 |
| 20260510004257 | 11 | 228 | 8.0 | 14.5 | 0.00 | 1.52 | 1.52 | 88 | 1009.0 |
| 20260510003757 | 10 | 210 | 3.2 | 14.5 | 0.00 | 1.52 | 1.52 | 88 | 1008.9 |
| 20260510003029 | 10 | 116 | 11.3 | 14.5 | 0.00 | 1.52 | 1.52 | 89 | 1008.8 |
| 20260510002529 | 10 | 191 | 1.6 | 9.7 | 0.00 | 1.52 | 1.52 | 89 | 1008.8 |
| 20260510002142 | 10 | 170 | 1.6 | 8.0 | 0.00 | 1.52 | 1.52 | 89 | 1008.7 |
| 20260510001528 | 10 | 120 | 4.8 | 8.0 | 0.00 | 1.52 | 1.52 | 89 | 1008.6 |
| 20260510001028 | 10 | 156 | 3.2 | 11.3 | 0.00 | 1.52 | 1.52 | 89 | 1008.5 |
| 20260510000528 | 11 | 179 | 3.2 | 11.3 | 0.00 | 1.52 | 1.52 | 89 | 1008.5 |
| 20260510000028 | 11 | 135 | 1.6 | 11.3 | 0.00 | 1.52 | 1.52 | 89 | 1008.4 |
| 20260509235642 | 11 | 196 | 4.8 | 9.7 | 0.00 | 1.52 | 1.52 | 88 | 1008.5 |
| 20260509235027 | 11 | 83 | 3.2 | 14.5 | 0.00 | 1.52 | 1.52 | 88 | 1008.3 |
| 20260509234644 | 11 | 220 | 1.6 | 14.5 | 0.00 | 1.52 | 1.52 | 88 | 1008.3 |
| 20260509234142 | 11 | 274 | 1.6 | 16.1 | 0.00 | 1.52 | 1.52 | 88 | 1008.2 |
| 20260509233757 | 11 | 140 | 12.9 | 16.1 | 0.00 | 1.52 | 1.52 | 88 | 1008.2 |
| 20260509233028 | 11 | 135 | 6.4 | 16.1 | 0.00 | 1.52 | 1.52 | 88 | 1008.2 |
| 20260509232528 | 11 | 190 | 6.4 | 12.9 | 0.00 | 1.52 | 1.52 | 89 | 1008.1 |
| 20260509232027 | 11 | 114 | 9.7 | 17.7 | 0.00 | 1.52 | 1.52 | 89 | 1008.2 |
| 20260509231528 | 11 | 116 | 4.8 | 19.3 | 0.00 | 1.52 | 1.52 | 89 | 1008.1 |
| 20260509231028 | 11 | 120 | 4.8 | 16.1 | 0.00 | 1.52 | 1.52 | 89 | 1008.1 |
| 20260509230528 | 11 | 131 | 14.5 | 16.1 | 0.00 | 1.52 | 1.52 | 89 | 1008.1 |
| 20260509230029 | 11 | 138 | 6.4 | 11.3 | 0.00 | 1.52 | 1.52 | 89 | 1008.2 |
| 20260509225527 | 11 | 177 | 3.2 | 11.3 | 0.00 | 1.52 | 1.52 | 89 | 1008.2 |
| 20260509225028 | 11 | 223 | 0.0 | 11.3 | 0.00 | 1.52 | 1.52 | 89 | 1008.2 |
| 20260509224528 | 11 | 206 | 1.6 | 12.9 | 0.00 | 1.52 | 1.52 | 89 | 1008.2 |
| 20260509224028 | 11 | 200 | 3.2 | 12.9 | 0.00 | 1.52 | 1.52 | 89 | 1008.2 |
| 20260509223643 | 11 | 197 | 6.4 | 11.3 | 0.00 | 1.52 | 1.52 | 90 | 1008.3 |
| 20260509223028 | 11 | 208 | 1.6 | 12.9 | 0.00 | 1.52 | 1.52 | 90 | 1008.3 |
| 20260509222527 | 11 | 230 | 3.2 | 12.9 | 0.00 | 1.52 | 1.52 | 90 | 1008.3 |
| 20260509222027 | 11 | 162 | 8.0 | 14.5 | 0.00 | 1.52 | 1.52 | 91 | 1008.2 |
| 20260509221529 | 11 | 157 | 3.2 | 12.9 | 0.00 | 1.52 | 1.52 | 90 | 1008.2 |
| 20260509221027 | 11 | 129 | 4.8 | 11.3 | 0.00 | 1.52 | 1.52 | 91 | 1008.3 |
| 20260509220643 | 11 | 216 | 1.6 | 11.3 | 0.00 | 1.52 | 1.52 | 91 | 1008.2 |
| 20260509220028 | 11 | 181 | 3.2 | 16.1 | 0.00 | 1.52 | 1.52 | 91 | 1008.2 |
| 20260509215643 | 11 | 184 | 9.7 | 16.1 | 0.00 | 1.52 | 1.52 | 91 | 1008.2 |
| 20260509215027 | 11 | 201 | 3.2 | 11.3 | 0.00 | 1.52 | 1.52 | 92 | 1008.3 |
| 20260509214528 | 10 | 164 | 1.6 | 12.9 | 0.00 | 1.52 | 1.52 | 93 | 1008.3 |
| 20260509214143 | 10 | 131 | 1.6 | 9.7 | 0.00 | 1.52 | 1.52 | 94 | 1008.3 |
| 20260509213528 | 10 | 224 | 0.0 | 3.2 | 0.00 | 1.52 | 1.52 | 94 | 1008.4 |
| 20260509213143 | 10 | 224 | 0.0 | 6.4 | 0.00 | 1.52 | 1.52 | 95 | 1008.5 |
| 20260509212527 | 10 | 224 | 3.2 | 4.8 | 0.00 | 1.52 | 1.52 | 95 | 1008.7 |
| 20260509212143 | 10 | 224 | 3.2 | 6.4 | 0.00 | 1.52 | 1.52 | 95 | 1008.6 |
| 20260509211644 | 9 | 225 | 3.2 | 6.4 | 0.00 | 1.52 | 1.52 | 95 | 1008.7 |
| 20260509211028 | 9 | 279 | 0.0 | 3.2 | 0.00 | 1.52 | 1.52 | 95 | 1008.6 |
| 20260509210527 | 8 | 320 | 0.0 | 3.2 | 0.00 | 1.52 | 1.52 | 95 | 1008.7 |
| 20260509210144 | 8 | 320 | 0.0 | 6.4 | 0.00 | 1.52 | 1.52 | 95 | 1008.7 |
| 20260509205528 | 8 | 4 | 1.6 | 8.0 | 0.00 | 1.52 | 1.52 | 95 | 1008.8 |
| 20260509205027 | 8 | 324 | 4.8 | 8.0 | 0.00 | 1.52 | 1.52 | 95 | 1009.0 |
| 20260509204529 | 8 | 336 | 4.8 | 6.4 | 0.00 | 1.52 | 1.52 | 95 | 1009.1 |
| 20260509204027 | 8 | 227 | 0.0 | 6.4 | 0.13 | 1.52 | 1.52 | 95 | 1009.2 |
| 20260509203528 | 8 | 354 | 6.4 | 6.4 | 0.15 | 1.52 | 1.52 | 95 | 1009.3 |
| 20260509203258 | 8 | 288 | 3.2 | 4.8 | 0.15 | 1.52 | 1.52 | 95 | 1009.4 |
| 20260509202528 | 8 | 336 | 0.0 | 3.2 | 0.10 | 1.50 | 1.50 | 95 | 1009.5 |
| 20260509202027 | 8 | 337 | 1.6 | 4.8 | 0.10 | 1.50 | 1.50 | 95 | 1009.5 |
| 20260509201528 | 8 | 336 | 1.6 | 4.8 | 0.13 | 1.45 | 1.45 | 95 | 1009.5 |
| 20260509201028 | 8 | 345 | 3.2 | 4.8 | 0.20 | 1.45 | 1.45 | 95 | 1009.5 |
| 20260509200528 | 8 | 59 | 1.6 | 3.2 | 0.28 | 1.45 | 1.45 | 95 | 1009.6 |
| 20260509200028 | 8 | 59 | 0.0 | 3.2 | 0.28 | 1.42 | 1.42 | 94 | 1009.6 |
| 20260509195643 | 8 | 60 | 0.0 | 3.2 | 0.23 | 1.42 | 1.42 | 94 | 1009.7 |
| 20260509195027 | 8 | 59 | 0.0 | 3.2 | 0.23 | 1.40 | 1.40 | 95 | 1009.7 |
| 20260509194529 | 8 | 81 | 0.0 | 3.2 | 0.23 | 1.37 | 1.37 | 94 | 1009.7 |
| 20260509194028 | 8 | 14 | 0.0 | 3.2 | 0.23 | 1.37 | 1.37 | 95 | 1009.7 |
| 20260509193528 | 8 | 11 | 0.0 | 1.6 | 0.25 | 1.35 | 1.35 | 95 | 1009.8 |
| 20260509193028 | 8 | 8 | 0.0 | 1.6 | 0.13 | 1.32 | 1.32 | 94 | 1009.9 |
| 20260509192527 | 8 | 4 | 0.0 | 1.6 | 0.15 | 1.30 | 1.30 | 95 | 1009.9 |
| 20260509192027 | 8 | 4 | 0.0 | 4.8 | 0.15 | 1.30 | 1.30 | 95 | 1009.8 |
| 20260509191644 | 8 | 8 | 1.6 | 4.8 | 0.15 | 1.30 | 1.30 | 95 | 1009.9 |
| 20260509191027 | 7 | 301 | 0.0 | 4.8 | 0.18 | 1.27 | 1.27 | 94 | 1009.9 |
| 20260509190527 | 7 | 43 | 3.2 | 4.8 | 0.18 | 1.27 | 1.27 | 94 | 1009.8 |
| 20260509190029 | 7 | 48 | 0.0 | 6.4 | 0.18 | 1.24 | 1.24 | 94 | 1009.8 |
| 20260509185527 | 7 | 45 | 1.6 | 6.4 | 0.18 | 1.22 | 1.22 | 94 | 1009.8 |
| 20260509185027 | 7 | 342 | 4.8 | 6.4 | 0.20 | 1.22 | 1.22 | 94 | 1009.9 |
| 20260509184529 | 7 | 19 | 3.2 | 6.4 | 0.25 | 1.19 | 1.19 | 94 | 1009.9 |
| 20260509184027 | 7 | 54 | 3.2 | 6.4 | 0.25 | 1.19 | 1.19 | 94 | 1009.9 |
| 20260509183642 | 7 | 70 | 1.6 | 4.8 | 0.30 | 1.17 | 1.17 | 94 | 1009.9 |
| 20260509183144 | 7 | 48 | 1.6 | 4.8 | 0.28 | 1.14 | 1.14 | 94 | 1010.0 |
| 20260509182642 | 7 | 45 | 1.6 | 6.4 | 0.30 | 1.12 | 1.12 | 94 | 1010.1 |
| 20260509182142 | 7 | 40 | 3.2 | 6.4 | 0.25 | 1.09 | 1.09 | 94 | 1010.1 |
| 20260509181528 | 7 | 21 | 3.2 | 6.4 | 0.38 | 1.07 | 1.07 | 94 | 1010.1 |
| 20260509181027 | 7 | 16 | 0.0 | 4.8 | 0.43 | 1.04 | 1.04 | 94 | 1010.1 |
| 20260509180642 | 7 | 56 | 0.0 | 4.8 | 0.36 | 1.02 | 1.02 | 94 | 1010.2 |
| 20260509180144 | 7 | 335 | 0.0 | 0.0 | 0.30 | 0.99 | 0.99 | 94 | 1010.3 |
| 20260509175527 | 7 | 76 | 0.0 | 4.8 | 0.43 | 0.97 | 0.97 | 94 | 1010.3 |
| 20260509175143 | 7 | 76 | 1.6 | 4.8 | 0.41 | 0.91 | 0.91 | 94 | 1010.4 |
| 20260509174758 | 7 | 73 | 0.0 | 4.8 | 0.41 | 0.89 | 0.89 | 94 | 1010.4 |
| 20260509174142 | 7 | 77 | 0.0 | 4.8 | 0.36 | 0.84 | 0.84 | 94 | 1010.5 |
| 20260509173528 | 7 | 21 | 3.2 | 4.8 | 0.23 | 0.81 | 0.81 | 94 | 1010.5 |
| 20260509173028 | 7 | 66 | 1.6 | 4.8 | 0.23 | 0.79 | 0.79 | 94 | 1010.6 |
| 20260509172528 | 7 | 33 | 0.0 | 6.4 | 0.18 | 0.79 | 0.79 | 94 | 1010.6 |
| 20260509172027 | 7 | 59 | 6.4 | 6.4 | 0.20 | 0.76 | 0.76 | 94 | 1010.6 |